map of TSE home
Great Circle Mapper logo
TSE - Airport
Location
City:  Astana, Kazakhstan
ICAO / IATA:UACC / TSE

Details
Type:Airport (Aerodrome, Airfield)
Use:Public/Civil, International (customs port of entry)
Latitude:5101'20"N (51.022222)
Longitude:7128'01"E (71.466944)
Datum:WGS 1984
Elevation:1165 ft (355 m)
Runways:1
Longest:11484 × 147 ft (3500 × 45 m), paved

Time
Time Zone:UTC+6
Local Time:

Weather
METAR:UACC 242000Z 29007MPS 9999 -SN SCT011 OVC022 M06/M08 Q1008 R22/4/0160 NOSIG RMK QFE725/0966
TAF:UACC 241700Z 2418/2518 26008MPS 9999 SCT010 BKN020CB TXM02/2513Z TNM08/2502Z
TEMPO 2418/2503 22005MPS 2000 -SHSN BR BKN007CB

Related Locations
Nearby:
Farthest:PNT: 10894 mi / 17532 km
Puerto Natales [Teniente Julio Gallardo], MA, CL

Find:

   beyond  
but within

Other Information
Maps:
NOTAMs:
Links:
Sources:

  
flag of Kazakhstan   

Sectional Chart

Flight Planning
at skyvector.com

Satellite Image

Google Maps Satellite View

 

Copyright © 2004-2014 Karl L. Swartz. All rights reserved.
The Great Circle Mapper name and logo are trademarks of the Great Circle Mapper.
All other trademarks mentioned herein belong to their respective owners.
Please see credits for attibutions and further copyright information.

  Follow gcmap on Facebook Follow gcmap on Twitter

hCard Microformat

Geo Microformat